Terminal Aerodrome Forecast
Issued by NWS

Home | Current Version | Previous Version | Graphics & Text | Print | Product List | Glossary Off
Versions: 1 2 3 4 5 6 7 8 9 10 11 12 13 14 15 16 17 18 19 20 21 22 23 24 25 26 27 28 29 30 31 32 33 34 35

000
FTUS43 KDDC 262300
TAFGCK
TAF
KGCK 262320Z 2700/2724 VRB03KT P6SM FEW150
     FM270900 04012KT P6SM FEW150
     FM271400 05019G28KT P6SM FEW150=

USA.gov is the U.S. government's official web portal to all federal, state and local government web resources and services.